FENGYUN 1C DEB

Satellite information

Favourite Embed

Satellite Type and Status

DEBRISIN ORBIT

Key statistics

Satellite FENGYUN 1C DEB at a glance.

Uptime

9497

Days in orbit

Revolutions

≈ 14.7

Per day

Orbit

SSO

Sun Synchronous Orbit

Inclination

99.2

Latest

Satellite identification and parameters

Extended collection of information and parameters for FENGYUN 1C DEB.

Object identification

Identified? True

Debris? True

Object name: FENGYUN 1C DEB

International designator: 1999-025EJU

Object number (NORAD): 37474

Object ID (CCSDS): 37474

Country: PEOPLES REPUBLIC OF CHINA (PRC)

Current information (Y/N): Y

RCS size: SMALL

Orbital parameters

Period: 97.94 minutes

Inclination: 99.1757 deg

SMA: 7038.276 km

Apoapsis: 761.802 km

Periapsis: 558.48 km

RAAN: 304.3307 deg

Eccentricy: 0.014444

Argument of periapsis: 94.5376 deg

Mean anomaly: 267.2342 deg

Mean motion: 14.70291044 rev/day

Mean motion (dot): 0.00013809 rev/day2

B* drag term: 0.0019521 1/REarth

Two-line elements (TLE)

Creation date: May 8, 2025, 3:01 a.m.

Reference frame: TEME

Reference center: EARTH

Epoch: May 7, 2025, 6:30 a.m. UTC

TLE line 0: 0 FENGYUN 1C DEB

TLE line 1: 1 37474U 99025EJU 25127.27140267 .00013809 00000-0 19521-2 0 9997

TLE line 2: 2 37474 99.1757 304.3307 0144440 94.5376 267.2342 14.70291044591469

Live tracking on map

Real-time ground track for satellite FENGYUN 1C DEB.

In-orbit conjunctions

A list of the most updated potential collisions computed for object FENGYUN 1C DEB.

Target Orbit TCA Probability of collision Miss distance Type
FENGYUN 1C DEB SSO 2025-01-04 18:45:59 0.0001170202 82.0 (m) DEBRIS
KAGAYAKI SSO 2024-06-13 15:03:11 0.0001321553 114.0 (m) PAYLOAD

Associated space launch

Chinese polar orbiting meteorological satellite

FENGYUN 1C DEB was lifted into orbit during the mission ‘Long March 4B | Feng Yun 1C’, on board a Long March 4B space rocket.

The launch took place on May 10, 1999, 1:33 a.m. from Launch Complex 7.

For more information about the launch, click the button.

Launch to space Long March 4B | Feng Yun 1C
Long March 4B | Feng Yun 1C

Agency: N/A

Status: Launch Successful

Launch date: May 10, 1999, 1:33 a.m. UTC

Rocket: Long March 4B

Launch pad: Launch Complex 7

Location: Taiyuan Satellite Launch Center, People's Republic of China

...

Latest news about this satellite

There are no fresh news available about this satellite. Check back as we update our databases every day.


Newsletter sign-up

Weekly statistics, charts and insights to help you stay on top of the space industry.